| time (UTC) | temp F | wind direction | speed MPH | gust MPH | rain 1hr in | rain 24hr in | rain mn in | humidity % | barometer mb |
| 20260507181520 | 48 | 346 | 0.0 | 2.0 | 0.00 | 0.00 | 0.00 | 40 | 1010.8 |
| 20260507180018 | 48 | 349 | 0.0 | 3.0 | 0.00 | 0.00 | 0.00 | 38 | 1010.9 |
| 20260507174537 | 47 | 331 | 1.0 | 3.0 | 0.00 | 0.00 | 0.00 | 40 | 1010.9 |
| 20260507173017 | 48 | 354 | 0.0 | 1.0 | 0.00 | 0.00 | 0.00 | 40 | 1011.1 |
| 20260507171511 | 47 | 13 | 0.0 | 2.0 | 0.00 | 0.00 | 0.00 | 41 | 1011.3 |
| 20260507170011 | 47 | 345 | 0.0 | 2.0 | 0.00 | 0.00 | 0.00 | 43 | 1011.5 |
| 20260507164509 | 47 | 353 | 0.0 | 3.0 | 0.00 | 0.00 | 0.00 | 43 | 1011.7 |
| 20260507163007 | 47 | 330 | 0.0 | 2.0 | 0.00 | 0.00 | 0.00 | 46 | 1011.8 |
| 20260507161505 | 45 | 6 | 0.0 | 4.0 | 0.00 | 0.00 | 0.00 | 48 | 1012.0 |
| 20260507160008 | 45 | 330 | 0.0 | 2.0 | 0.00 | 0.00 | 0.00 | 48 | 1012.1 |
| 20260507154505 | 45 | 14 | 1.0 | 3.0 | 0.00 | 0.00 | 0.00 | 46 | 1012.1 |
| 20260507153003 | 44 | 356 | 0.0 | 3.0 | 0.00 | 0.00 | 0.00 | 45 | 1012.1 |
| 20260507151502 | 44 | 22 | 0.0 | 4.0 | 0.00 | 0.00 | 0.00 | 46 | 1012.1 |
| 20260507150002 | 44 | 15 | 0.0 | 3.0 | 0.00 | 0.00 | 0.00 | 48 | 1012.1 |
| 20260507144501 | 44 | 19 | 1.0 | 5.0 | 0.00 | 0.00 | 0.00 | 49 | 1012.0 |
| 20260507143119 | 45 | 13 | 1.0 | 5.0 | 0.00 | 0.00 | 0.00 | 50 | 1011.9 |
| 20260507141628 | 45 | 318 | 0.0 | 2.0 | 0.00 | 0.00 | 0.00 | 44 | 1011.8 |
| 20260507140112 | 45 | 321 | 0.0 | 3.0 | 0.00 | 0.00 | 0.00 | 42 | 1011.9 |
| 20260507134607 | 45 | 328 | 0.0 | 1.0 | 0.00 | 0.00 | 0.00 | 43 | 1012.0 |
| 20260507133103 | 45 | 347 | 0.0 | 1.0 | 0.00 | 0.00 | 0.00 | 43 | 1012.0 |
| 20260507131617 | 44 | 10 | 0.0 | 0.0 | 0.00 | 0.00 | 0.00 | 42 | 1012.0 |
| 20260507130052 | 44 | 30 | 0.0 | 0.0 | 0.00 | 0.00 | 0.00 | 43 | 1011.9 |
| 20260507124555 | 43 | 88 | 0.0 | 0.0 | 0.00 | 0.00 | 0.00 | 47 | 1011.9 |
| 20260507123050 | 41 | 99 | 0.0 | 1.0 | 0.00 | 0.00 | 0.00 | 49 | 1012.0 |
| 20260507121543 | 39 | 82 | 0.0 | 0.0 | 0.00 | 0.00 | 0.00 | 51 | 1012.0 |
| 20260507120044 | 38 | 82 | 0.0 | 0.0 | 0.00 | 0.00 | 0.00 | 53 | 1012.0 |
| 20260507114542 | 38 | 82 | 0.0 | 0.0 | 0.00 | 0.00 | 0.00 | 55 | 1011.9 |
| 20260507113104 | 37 | 82 | 0.0 | 1.0 | 0.00 | 0.00 | 0.00 | 56 | 1011.8 |
| 20260507111541 | 37 | 65 | 0.0 | 0.0 | 0.00 | 0.00 | 0.00 | 57 | 1011.6 |
| 20260507110041 | 36 | 65 | 0.0 | 0.0 | 0.00 | 0.00 | 0.00 | 57 | 1011.4 |
| 20260507104544 | 36 | 65 | 0.0 | 0.0 | 0.00 | 0.00 | 0.00 | 57 | 1011.4 |
| 20260507103038 | 36 | 65 | 0.0 | 0.0 | 0.00 | 0.00 | 0.00 | 56 | 1011.5 |
| 20260507101537 | 36 | 65 | 0.0 | 0.0 | 0.00 | 0.00 | 0.00 | 56 | 1011.5 |
| 20260507100044 | 36 | 65 | 0.0 | 0.0 | 0.00 | 0.00 | 0.00 | 56 | 1011.5 |
| 20260507094539 | 35 | 65 | 0.0 | 0.0 | 0.00 | 0.00 | 0.00 | 57 | 1011.5 |
| 20260507093035 | 35 | 65 | 0.0 | 0.0 | 0.00 | 0.00 | 0.00 | 57 | 1011.7 |
| 20260507091537 | 35 | 65 | 0.0 | 0.0 | 0.00 | 0.00 | 0.00 | 55 | 1011.7 |
| 20260507090032 | 35 | 65 | 0.0 | 0.0 | 0.00 | 0.00 | 0.00 | 56 | 1011.7 |
| 20260507084546 | 35 | 65 | 0.0 | 0.0 | 0.00 | 0.00 | 0.00 | 55 | 1011.7 |
| 20260507083030 | 35 | 51 | 0.0 | 0.0 | 0.00 | 0.00 | 0.00 | 51 | 1011.8 |
| 20260507081529 | 35 | 51 | 0.0 | 0.0 | 0.00 | 0.00 | 0.00 | 51 | 1011.8 |
| 20260507080029 | 35 | 51 | 0.0 | 0.0 | 0.00 | 0.00 | 0.00 | 53 | 1011.8 |
| 20260507074528 | 36 | 51 | 0.0 | 0.0 | 0.00 | 0.00 | 0.00 | 53 | 1011.6 |
| 20260507073027 | 36 | 51 | 0.0 | 0.0 | 0.00 | 0.00 | 0.00 | 52 | 1011.6 |
| 20260507071527 | 36 | 51 | 0.0 | 0.0 | 0.00 | 0.00 | 0.00 | 51 | 1011.7 |
| 20260507070026 | 35 | 51 | 0.0 | 0.0 | 0.00 | 0.00 | 0.00 | 51 | 1011.7 |
| 20260507064524 | 35 | 51 | 0.0 | 0.0 | 0.00 | 0.00 | 0.00 | 52 | 1011.8 |
| 20260507063022 | 35 | 51 | 0.0 | 0.0 | 0.00 | 0.00 | 0.00 | 51 | 1011.9 |
| 20260507061521 | 35 | 51 | 0.0 | 0.0 | 0.00 | 0.00 | 0.00 | 52 | 1012.1 |
| 20260507060032 | 36 | 51 | 0.0 | 0.0 | 0.00 | 0.00 | 0.00 | 51 | 1012.1 |
| 20260507054515 | 36 | 51 | 0.0 | 0.0 | 0.00 | 0.00 | 0.00 | 50 | 1012.2 |
| 20260507053013 | 37 | 51 | 0.0 | 0.0 | 0.00 | 0.00 | 0.00 | 48 | 1012.3 |
| 20260507051510 | 38 | 51 | 0.0 | 0.0 | 0.00 | 0.00 | 0.00 | 47 | 1012.4 |
| 20260507050024 | 39 | 57 | 0.0 | 3.0 | 0.00 | 0.00 | 0.00 | 46 | 1012.5 |
| 20260507044508 | 39 | 45 | 2.0 | 5.0 | 0.00 | 0.00 | 0.00 | 47 | 1012.4 |
| 20260507043005 | 39 | 40 | 0.0 | 7.0 | 0.00 | 0.00 | 0.00 | 46 | 1012.2 |
| 20260507041501 | 39 | 33 | 3.0 | 5.0 | 0.00 | 0.00 | 0.00 | 48 | 1012.4 |
| 20260507040109 | 39 | 41 | 0.0 | 3.0 | 0.00 | 0.00 | 0.00 | 46 | 1012.3 |
| 20260507034604 | 39 | 71 | 0.0 | 1.0 | 0.00 | 0.00 | 0.00 | 45 | 1012.2 |
| 20260507033103 | 40 | 39 | 0.0 | 1.0 | 0.00 | 0.00 | 0.00 | 45 | 1012.3 |
| 20260507031556 | 40 | 58 | 0.0 | 5.0 | 0.00 | 0.00 | 0.00 | 45 | 1012.7 |
| 20260507030056 | 40 | 49 | 0.0 | 4.0 | 0.00 | 0.00 | 0.00 | 44 | 1012.7 |
| 20260507024556 | 40 | 39 | 2.0 | 6.0 | 0.00 | 0.00 | 0.00 | 45 | 1012.6 |
| 20260507023055 | 40 | 51 | 1.0 | 6.0 | 0.00 | 0.00 | 0.00 | 44 | 1012.7 |
| 20260507021602 | 40 | 35 | 4.0 | 10.0 | 0.00 | 0.00 | 0.00 | 44 | 1012.6 |
| 20260507020054 | 40 | 55 | 5.0 | 10.0 | 0.00 | 0.00 | 0.00 | 44 | 1012.7 |
| 20260507014556 | 40 | 52 | 4.0 | 11.0 | 0.00 | 0.00 | 0.00 | 44 | 1012.7 |
| 20260507013053 | 40 | 63 | 7.0 | 12.0 | 0.00 | 0.00 | 0.00 | 43 | 1012.6 |
| 20260507011556 | 41 | 47 | 7.0 | 12.0 | 0.00 | 0.00 | 0.00 | 41 | 1012.5 |
| 20260507010049 | 41 | 46 | 5.0 | 10.0 | 0.00 | 0.00 | 0.00 | 45 | 1012.3 |
| 20260507004550 | 41 | 62 | 6.0 | 15.0 | 0.00 | 0.00 | 0.00 | 42 | 1012.1 |
| 20260507003048 | 41 | 51 | 1.0 | 14.0 | 0.00 | 0.00 | 0.00 | 44 | 1011.9 |
| 20260507001547 | 41 | 46 | 7.0 | 12.0 | 0.00 | 0.00 | 0.00 | 44 | 1011.8 |
| 20260507000047 | 41 | 39 | 4.0 | 13.0 | 0.00 | 0.00 | 0.00 | 43 | 1011.5 |
| 20260506234603 | 41 | 45 | 7.0 | 14.0 | 0.00 | 0.00 | 0.00 | 43 | 1011.4 |
| 20260506233045 | 42 | 60 | 1.0 | 7.0 | 0.00 | 0.00 | 0.00 | 43 | 1011.4 |
| 20260506231544 | 43 | 46 | 4.0 | 11.0 | 0.00 | 0.00 | 0.00 | 44 | 1011.3 |
| 20260506230043 | 43 | 38 | 7.0 | 17.0 | 0.00 | 0.00 | 0.00 | 44 | 1011.4 |
| 20260506224546 | 44 | 55 | 2.0 | 11.0 | 0.00 | 0.00 | 0.00 | 44 | 1011.3 |
| 20260506223048 | 45 | 37 | 6.0 | 10.0 | 0.00 | 0.00 | 0.00 | 42 | 1011.2 |
| 20260506221542 | 44 | 58 | 10.0 | 15.0 | 0.00 | 0.00 | 0.00 | 44 | 1011.2 |
| 20260506220042 | 45 | 40 | 2.0 | 12.0 | 0.00 | 0.00 | 0.00 | 42 | 1011.1 |
| 20260506214543 | 45 | 44 | 6.0 | 12.0 | 0.00 | 0.00 | 0.00 | 42 | 1011.0 |
| 20260506213039 | 45 | 44 | 1.0 | 13.0 | 0.00 | 0.00 | 0.00 | 43 | 1011.0 |
| 20260506211537 | 44 | 56 | 7.0 | 13.0 | 0.00 | 0.00 | 0.00 | 44 | 1010.9 |
| 20260506210039 | 43 | 57 | 10.0 | 14.0 | 0.00 | 0.00 | 0.00 | 43 | 1010.9 |
| 20260506204548 | 43 | 61 | 5.0 | 13.0 | 0.00 | 0.00 | 0.00 | 44 | 1010.9 |
| 20260506203036 | 43 | 37 | 10.0 | 16.0 | 0.00 | 0.00 | 0.00 | 44 | 1011.0 |
| 20260506201538 | 43 | 44 | 7.0 | 13.0 | 0.00 | 0.00 | 0.00 | 42 | 1011.1 |
| 20260506200035 | 42 | 49 | 9.0 | 13.0 | 0.00 | 0.00 | 0.00 | 43 | 1011.2 |
| 20260506194539 | 43 | 45 | 4.0 | 12.0 | 0.00 | 0.00 | 0.00 | 42 | 1011.1 |
| 20260506193033 | 43 | 44 | 9.0 | 13.0 | 0.00 | 0.00 | 0.00 | 43 | 1011.2 |
| 20260506191531 | 43 | 55 | 8.0 | 16.0 | 0.00 | 0.00 | 0.00 | 45 | 1011.3 |
| 20260506190031 | 42 | 34 | 13.0 | 16.0 | 0.00 | 0.00 | 0.00 | 48 | 1011.4 |
| 20260506184531 | 42 | 28 | 12.0 | 17.0 | 0.00 | 0.00 | 0.00 | 47 | 1011.4 |
| 20260506183030 | 42 | 28 | 11.0 | 18.0 | 0.00 | 0.00 | 0.00 | 49 | 1011.5 |